Meath Environmental Platform

Observations for Trim Patrick St

Time AQI Temp °C Hum % Pres Pa CO μg/m³ H₂S μg/m³ NO μg/m³ NO₂ μg/m³ O₃ μg/m³ SO₂ μg/m³ PM1 μg/m³ PM2.5 μg/m³ PM10 μg/m³
Thursday 27 August 2026
15:48 3 21.6 72 38,460 0 0 3.74 6.94 53.58 3.6 13.14 21.47 23.62
15:47 3 21.6 73 38,460 0 0 3.81 9.07 46.88 3.22 14 21.43 23.57
15:46 3 21.7 73 38,460 0 0 3.71 8.43 49.41 2.86 11.43 17.86 19.65
15:45 3 21.6 72 38,460 0 0 3.97 7.75 51.18 2.78 14 20.74 22.82
15:44 3 21.7 72 38,460 0 0 3.81 6.12 55.36 3.68 12.29 18.62 21.09
15:43 3 21.6 72 38,460 0 0 3.63 8.47 48.51 3.38 13.14 18.6 20.46
15:42 3 21.7 72 38,460 0 0 3.18 11.11 42.94 3.49 14 20.04 22.04
15:41 3 21.7 72 38,460 0.03 0 3.25 10.62 43.81 3.27 13.14 18.6 20.46
15:40 3 21.7 73 38,460 0 0 2.32 10.61 44.95 3.13 14 20.01 22.01
15:39 3 21.7 72 38,460 0 0 2.25 7.42 52.23 2.82 14 20.03 22.03
15:38 3 21.7 73 38,460 0 0 2.02 6.82 53.6 3.56 13.14 17.86 19.65
15:37 3 21.7 73 38,460 0 0 2.32 6.41 54.4 3.99 11.43 17.13 18.85
15:36 3 21.7 73 38,460 0 0 2 8.89 47.32 3.77 15.71 22.11 24.32
15:35 3 21.7 73 38,460 0 0 2.34 10.54 44.87 3.13 15.71 19.24 21.16
15:34 3 21.7 73 38,460 0 0 2.3 11.77 43.18 2.51 14.86 22.83 25.12
15:33 3 21.7 73 38,460 0 0 2.63 7.02 52.85 3.18 13.14 20.71 22.78
15:32 3 21.7 73 38,460 0 0 2.69 7.47 51.02 3.31 14 20 21.99
15:31 3 21.7 73 38,460 0 0 2.97 11.19 44.15 3.61 14 19.27 21.2
15:30 3 21.7 73 38,460 0 0 2.82 6.85 53.75 3.46 10.57 16.4 18.04
15:29 3 21.7 73 38,460 0 0 2.78 10.71 44.54 2.73 13.14 19.25 21.17